time_stamp(utc),avg(mph),gust(mph),direction(deg),12m_air_temp(f),sonic_u(cm/s),sonic_v(cm/s),sonic_w(cm/s),pressure,2m_air_temp(f),pyranometer(W/m^2)
"2018-02-27 00:02:58+00",6.3,7.3,,46.7,-259,87,13,1022.45,45.1,0
"2018-02-27 00:07:58+00",5.8,6.8,,46.5,-195,159,11,1022.28,45,0
"2018-02-27 00:12:58+00",6.4,7.4,,46.5,-217,167,12,1022.39,45,0
"2018-02-27 00:17:58+00",5.7,5.7,,46.5,-183,160,11,1022.57,44.9,0
"2018-02-27 00:22:58+00",5.1,6.1,,46.4,-170,138,9,1022.56,44.7,0
"2018-02-27 00:27:58+00",5.3,5.3,,46.2,-141,176,11,1022.65,44.5,0
"2018-02-27 00:32:58+00",7.2,7.2,,46.2,-238,202,13,1022.68,44.3,0
"2018-02-27 00:37:58+00",6.8,7.8,,46.1,-230,185,15,1022.82,44.2,0
"2018-02-27 00:42:58+00",7.6,7.6,,46.2,-262,206,18,1022.79,44,0
"2018-02-27 00:47:58+00",7.3,7.3,,46.1,-270,173,21,1022.82,43.7,0
"2018-02-27 00:52:58+00",8.3,8.3,,45.8,-303,204,19,1023.02,43.2,0
"2018-02-27 00:57:58+00",8.9,8.9,,45.6,-333,212,20,1023.12,42.7,0
"2018-02-27 01:02:58+00",9.2,10.2,,45.2,-360,198,21,1023.19,42.4,0
"2018-02-27 01:07:58+00",8.8,9.8,,45.3,-336,199,18,1023.21,42.2,0
"2018-02-27 01:12:58+00",8.5,9.5,,45.2,-339,160,18,1023.25,42.1,0
"2018-02-27 01:17:58+00",8.1,9.1,,45.1,-316,171,17,1023.4,42.1,0
"2018-02-27 01:22:58+00",8.1,9.1,,45,-311,169,16,1023.48,42.1,0
"2018-02-27 01:27:58+00",7.9,8.9,,44.9,-308,168,19,1023.59,42,0
"2018-02-27 01:32:58+00",8.2,9.2,,44.8,-318,179,16,1023.64,41.9,0
"2018-02-27 01:37:58+00",7.5,8.5,,44.7,-295,154,21,1023.58,41.9,0
"2018-02-27 01:42:58+00",7.3,8.3,,44.6,-270,170,18,1023.7,41.8,0
"2018-02-27 01:47:58+00",7.2,8.2,,44.3,-279,160,15,1023.76,41.6,0
"2018-02-27 01:52:58+00",7.1,8.1,,44.1,-280,135,14,1023.84,41.5,0
"2018-02-27 01:57:58+00",6.8,7.8,,44,-264,147,15,1023.82,41.2,0
"2018-02-27 02:02:58+00",7.1,8.1,,43.9,-296,114,16,1023.96,41,0
"2018-02-27 02:07:58+00",7.7,8.7,,44,-323,111,16,1023.95,40.9,0
"2018-02-27 02:12:58+00",7.8,8.8,,43.9,-322,129,24,1023.97,40.9,0
"2018-02-27 02:17:58+00",7.7,8.7,,43.6,-323,130,19,1024.11,41,0
"2018-02-27 02:22:58+00",8.4,8.4,,43.6,-353,139,21,1024.11,40.9,0
"2018-02-27 02:27:58+00",7.9,8.9,,43.6,-328,116,21,1024.09,40.9,0
"2018-02-27 02:32:58+00",6.8,7.8,,43.5,-279,109,10,1024.16,40.7,0
"2018-02-27 02:37:58+00",5.3,5.3,,43,-217,57,10,1024.27,40.4,0
"2018-02-27 02:42:58+00",6.2,6.2,,43,-267,48,13,1024.32,40.2,0
"2018-02-27 02:47:58+00",4.6,5.6,,42.7,-195,34,8,1024.26,40.1,0
"2018-02-27 02:52:58+00",8.5,9.5,,42.7,-356,135,11,1024.16,39.9,0
"2018-02-27 02:57:58+00",10.5,12.5,,43.8,-422,186,7,1024.09,40.7,0
"2018-02-27 03:02:58+00",8.4,9.4,,43.3,-359,111,23,1024.12,41.1,0
"2018-02-27 03:07:58+00",7.7,8.7,,42.4,-305,160,22,1024.12,40.9,0
"2018-02-27 03:12:58+00",8.5,9.5,,42.1,-296,233,28,1024.2,40.4,0
"2018-02-27 03:17:58+00",11.1,12.1,,42.1,-379,328,25,1024.14,40.5,0
"2018-02-27 03:22:58+00",13.7,15.7,,41.9,-491,363,35,1024.08,40.7,0
"2018-02-27 03:27:58+00",13.4,14.4,,41.8,-499,345,39,1024.09,40.6,0
"2018-02-27 03:32:58+00",11.3,13.3,,41.3,-412,281,33,1024.16,40.3,0
"2018-02-27 03:37:58+00",10.8,11.8,,41,-387,283,21,1024.23,40,0
"2018-02-27 03:42:58+00",10.6,12.6,,40.9,-384,277,25,1024.29,39.7,0
"2018-02-27 03:47:58+00",10.5,12.5,,41.1,-347,310,30,1024.36,39.7,0
"2018-02-27 03:52:58+00",10.7,11.7,,41.3,-341,329,29,1024.37,39.9,0
"2018-02-27 03:57:58+00",11.1,12.1,,41.4,-374,326,29,1024.41,40,0
"2018-02-27 04:02:58+00",10.0,11.0,,41.4,-359,259,27,1024.44,40,0
"2018-02-27 04:07:58+00",11.1,12.1,,41.4,-400,294,27,1024.48,39.9,0
"2018-02-27 04:12:58+00",11.1,12.1,,41.4,-391,301,29,1024.52,40,0
"2018-02-27 04:17:58+00",11.4,12.4,,41.4,-420,294,27,1024.66,39.9,0
"2018-02-27 04:22:58+00",10.5,11.5,,41.2,-393,254,28,1024.74,39.7,0
"2018-02-27 04:27:58+00",10.6,12.6,,41,-385,270,36,1024.8,39.4,0
"2018-02-27 04:32:58+00",10.6,12.6,,41.1,-388,270,29,1024.81,39.4,0
"2018-02-27 04:37:58+00",10.8,11.8,,40.9,-407,263,34,1024.89,39.3,0
"2018-02-27 04:42:58+00",9.6,10.6,,40.8,-349,249,28,1024.88,39.1,0
"2018-02-27 04:47:58+00",10.6,11.6,,40.9,-362,299,33,1024.86,39.2,0
"2018-02-27 04:52:58+00",10.0,11.0,,40.7,-368,246,25,1024.87,39.3,0
"2018-02-27 04:57:58+00",9.7,10.7,,40.4,-376,214,19,1024.94,39.1,0
"2018-02-27 05:02:58+00",11.2,12.2,,40.2,-383,322,39,1025.01,38.8,0
"2018-02-27 05:07:58+00",12.1,13.1,,40.7,-362,389,32,1025,39.1,0
"2018-02-27 05:12:58+00",12.8,13.8,,41.1,-388,413,32,1025.11,39.5,0
"2018-02-27 05:17:58+00",13.8,15.8,,41.2,-427,438,31,1025.12,39.6,0
"2018-02-27 05:22:58+00",13.7,15.7,,41,-451,421,36,1025.2,39.7,0
"2018-02-27 05:27:58+00",13.1,14.1,,40.9,-427,401,30,1025.25,39.7,0
"2018-02-27 05:32:58+00",12.2,13.2,,40.9,-423,350,31,1025.33,39.7,0
"2018-02-27 05:37:58+00",11.8,12.8,,40.9,-430,308,39,1025.4,39.6,0
"2018-02-27 05:42:58+00",11.8,12.8,,40.7,-438,296,32,1025.45,39.4,0
"2018-02-27 05:47:58+00",10.5,12.5,,40.5,-388,265,28,1025.46,39.2,0
"2018-02-27 05:52:58+00",11.4,12.4,,40.5,-429,286,33,1025.57,39.1,0
"2018-02-27 05:57:58+00",11.5,12.5,,40.6,-429,284,30,1025.53,39.1,0
"2018-02-27 06:02:58+00",11.6,12.6,,40.7,-450,275,35,1025.58,39.2,0
"2018-02-27 06:07:58+00",12.4,13.4,,40.7,-451,315,34,1025.7,39.2,0
"2018-02-27 06:12:58+00",12.4,13.4,,40.7,-454,315,31,1025.76,39.2,0
"2018-02-27 06:17:58+00",11.7,12.7,,40.6,-427,306,33,1025.73,39.3,0
"2018-02-27 06:22:58+00",10.0,11.0,,40.5,-361,280,30,1025.83,39.2,0
"2018-02-27 06:27:58+00",10.0,12.0,,40.5,-359,280,25,1025.8,39.1,0
"2018-02-27 06:32:58+00",11.3,12.3,,40.6,-391,315,26,1025.95,39.2,0
"2018-02-27 06:37:58+00",10.6,12.6,,40.5,-365,298,26,1025.92,39.2,0
"2018-02-27 06:42:58+00",12.5,13.5,,40.6,-429,358,35,1026.07,39.3,0
"2018-02-27 06:47:58+00",12.4,14.4,,40.5,-409,373,36,1026.03,39.3,0
"2018-02-27 06:52:58+00",13.9,14.9,,40.3,-463,419,36,1026.13,39.3,0
"2018-02-27 06:57:58+00",14.2,15.2,,40.3,-461,428,37,1026.14,39.4,0
"2018-02-27 07:02:58+00",13.0,14.0,,40.1,-418,396,39,1026.24,39.3,0
"2018-02-27 07:07:58+00",12.1,16.1,,39.8,-383,381,36,1026.2,39,0
"2018-02-27 07:12:58+00",11.4,13.4,,39.6,-354,361,27,1026.21,38.9,0
"2018-02-27 07:17:58+00",12.3,13.3,,39.5,-386,388,40,1026.31,38.7,0
"2018-02-27 07:22:58+00",13.0,14.0,,39.4,-390,425,33,1026.28,38.6,0
"2018-02-27 07:27:58+00",13.3,14.3,,39.5,-385,455,41,1026.23,38.6,0
"2018-02-27 07:32:58+00",12.4,14.4,,39.5,-310,455,33,1026.34,38.5,0
"2018-02-27 07:37:58+00",12.9,13.9,,39.4,-318,465,28,1026.44,38.3,0
"2018-02-27 07:42:58+00",11.3,13.3,,39.4,-268,423,27,1026.5,38.1,0
"2018-02-27 07:47:58+00",11.0,13.0,,39.4,-210,430,17,1026.45,37.9,0
"2018-02-27 07:52:58+00",13.6,15.6,,39.9,-237,541,32,1026.61,38.1,0
"2018-02-27 07:57:58+00",14.7,17.7,,40,-240,599,27,1026.61,38.3,0
"2018-02-27 08:02:58+00",13.0,16.0,,39.6,-161,545,24,1026.71,38.3,0
"2018-02-27 08:07:58+00",13.1,15.1,,39.3,-92,575,10,1026.68,37.9,0
"2018-02-27 08:12:58+00",12.0,13.0,,39.1,-74,531,13,1026.84,37.5,0
"2018-02-27 08:17:58+00",12.1,13.1,,38.8,-70,528,19,1026.82,37.1,0
"2018-02-27 08:22:58+00",11.3,13.3,,38.7,-85,489,18,1026.93,36.9,0
"2018-02-27 08:27:58+00",12.4,14.4,,38.5,-108,536,16,1027.01,36.7,0
"2018-02-27 08:32:58+00",11.9,13.9,,38.3,-103,520,21,1027.09,36.6,0
"2018-02-27 08:37:58+00",12.6,15.6,,38.2,-104,545,17,1027.19,36.4,0
"2018-02-27 08:42:58+00",12.9,16.9,,38,-131,549,25,1027.23,36.3,0
"2018-02-27 08:47:58+00",13.1,14.1,,37.8,-70,565,14,1027.21,36.2,0
"2018-02-27 08:52:58+00",12.9,14.9,,37.9,-26,568,14,1027.25,35.9,0
"2018-02-27 08:57:58+00",12.7,14.7,,38,-43,552,18,1027.31,35.8,0
"2018-02-27 09:02:58+00",13.4,14.4,,38.2,-22,583,15,1027.49,35.7,0
"2018-02-27 09:07:58+00",13.9,14.9,,38.1,-33,602,17,1027.58,35.7,0
"2018-02-27 09:12:58+00",13.1,14.1,,37.9,-23,572,21,1027.52,35.6,0
"2018-02-27 09:17:58+00",12.5,13.5,,37.7,-8,543,13,1027.6,35.5,0
"2018-02-27 09:22:58+00",11.8,12.8,,37.7,-16,507,22,1027.58,35.4,0
"2018-02-27 09:27:58+00",11.6,12.6,,37.5,-6,507,13,1027.67,35.2,0
"2018-02-27 09:32:58+00",11.7,12.7,,37.7,-14,507,17,1027.71,35.1,0
"2018-02-27 09:37:58+00",10.2,11.2,,37.5,-28,445,15,1027.75,34.9,0
"2018-02-27 09:42:58+00",10.6,12.6,,37.4,-33,462,12,1027.71,34.8,0
"2018-02-27 09:47:58+00",11.1,12.1,,37.6,-42,483,11,1027.72,34.7,0
"2018-02-27 09:52:58+00",11.2,12.2,,37.8,-45,484,18,1027.77,34.6,0
"2018-02-27 09:57:58+00",11.9,13.9,,37.9,-34,515,20,1027.85,34.7,0
"2018-02-27 10:02:58+00",10.9,11.9,,38.3,-15,470,17,1027.86,34.7,0
"2018-02-27 10:07:58+00",10.0,11.0,,38.5,-63,437,14,1027.97,34.9,0
"2018-02-27 10:12:58+00",11.8,12.8,,38.9,-17,514,16,1027.86,35.1,0
"2018-02-27 10:17:58+00",12.2,14.2,,39.3,-21,526,13,1028.02,35.4,0
"2018-02-27 10:22:58+00",11.6,12.6,,39.1,-39,510,19,1028.14,35.6,0
"2018-02-27 10:27:58+00",10.6,12.6,,39.3,-12,456,11,1028.08,35.6,0
"2018-02-27 10:32:58+00",8.6,9.6,,38.7,-46,373,13,1028.23,35.6,0
"2018-02-27 10:37:58+00",9.8,11.8,,38.6,-56,420,10,1028.2,35.4,0
"2018-02-27 10:42:58+00",7.7,8.7,,38.8,-50,324,19,1028.22,35.5,0
"2018-02-27 10:47:58+00",7.5,8.5,,37.9,-117,298,14,1028.25,35.4,0
"2018-02-27 10:52:58+00",8.1,9.1,,37.4,-110,329,17,1028.24,35.3,0
"2018-02-27 10:57:58+00",8.5,9.5,,37.1,-122,352,17,1028.18,35.1,0
"2018-02-27 11:02:58+00",8.0,8.0,,37.1,-127,317,17,1028.22,35.1,0
"2018-02-27 11:07:58+00",7.2,8.2,,37,-114,287,17,1028.07,34.9,0
"2018-02-27 11:12:58+00",7.5,8.5,,37,-117,297,16,1028.26,34.8,0
"2018-02-27 11:17:58+00",7.3,8.3,,37.1,-103,296,14,1028.13,34.8,0
"2018-02-27 11:22:58+00",7.3,8.3,,37.2,-138,285,17,1028.27,34.7,0
"2018-02-27 11:27:58+00",5.6,6.6,,37.4,-132,192,13,1028.31,34.7,0
"2018-02-27 11:32:58+00",7.3,8.3,,37.7,-126,282,16,1028.47,34.8,0
"2018-02-27 11:37:58+00",7.6,8.6,,37.7,-138,294,20,1028.52,34.8,0
"2018-02-27 11:42:58+00",7.4,8.4,,38,-147,282,17,1028.47,34.9,0
"2018-02-27 11:47:58+00",7.2,8.2,,38.1,-134,276,16,1028.4,35,0
"2018-02-27 11:52:58+00",6.3,7.3,,38.2,-99,248,10,1028.59,35.1,0
"2018-02-27 11:57:58+00",7.1,8.1,,38.4,-136,276,18,1028.65,35.3,0
"2018-02-27 12:02:58+00",6.7,7.7,,38.5,-138,249,20,1028.69,35.6,0
"2018-02-27 12:07:58+00",7.4,8.4,,38.5,-181,264,18,1028.76,35.9,12.2
"2018-02-27 12:12:58+00",5.1,6.1,,38.6,-153,155,18,1028.91,36.5,21.1
"2018-02-27 12:17:58+00",6.1,7.1,,38.3,-204,168,19,1028.92,37.2,28.6
"2018-02-27 12:22:58+00",6.5,7.5,,38.3,-246,152,29,1029.04,37.9,38.1
"2018-02-27 12:27:58+00",7.8,8.8,,38.2,-271,209,32,1029.06,38.3,48
"2018-02-27 12:32:58+00",7.0,8.0,,38,-242,190,25,1029.06,38.6,57.1
"2018-02-27 12:37:58+00",7.3,8.3,,38,-234,212,27,1029.04,38.8,68.4
"2018-02-27 12:42:58+00",7.1,7.1,,37.9,-204,228,24,1029.04,38.9,79.6
"2018-02-27 12:47:58+00",7.2,8.2,,38,-200,242,35,1029.11,39.1,89.2
"2018-02-27 12:52:58+00",7.2,8.2,,37.8,-183,247,21,1029.2,39.3,99.6
"2018-02-27 12:57:58+00",7.5,7.5,,37.9,-207,248,16,1029.21,39.6,111.2
"2018-02-27 13:02:58+00",6.9,7.9,,38.2,-187,233,17,1029.22,39.7,121.8
"2018-02-27 13:07:58+00",6.7,7.7,,38.5,-198,221,22,1029.3,40,133.4
"2018-02-27 13:12:58+00",6.3,7.3,,38.6,-188,196,24,1029.4,40.2,143.4
"2018-02-27 13:17:58+00",7.2,7.2,,38.9,-201,237,17,1029.36,40.5,152.8
"2018-02-27 13:22:58+00",7.0,7.0,,39.1,-213,213,14,1029.38,40.8,164.3
"2018-02-27 13:27:58+00",5.7,6.7,,39.3,-126,206,11,1029.46,41.1,173.2
"2018-02-27 13:32:58+00",5.7,5.7,,39.8,-164,180,10,1029.41,41.6,184.1
"2018-02-27 13:37:58+00",5.5,7.5,,40.1,-173,155,24,1029.49,42,191.5
"2018-02-27 13:42:58+00",5.6,7.6,,40.4,-150,177,23,1029.6,42.3,202
"2018-02-27 13:47:58+00",9.2,10.2,,41.2,-40,397,6,1029.6,42.9,210.1
"2018-02-27 13:52:58+00",9.3,10.3,,42,-18,405,12,1029.58,44.1,219.7
"2018-02-27 13:57:58+00",8.1,9.1,,42.2,4,347,7,1029.61,45.1,227
"2018-02-27 14:02:58+00",7.0,8.0,,42.7,63,280,1,1029.6,45.8,234.5
"2018-02-27 14:07:58+00",7.3,11.3,,43,135,273,10,1029.62,46.2,246.2
"2018-02-27 14:12:58+00",9.4,11.4,,43.2,156,359,-5,1029.69,46.1,251
"2018-02-27 14:17:58+00",8.5,9.5,,43.4,158,319,4,1029.7,46.3,254.4
"2018-02-27 14:22:58+00",9.4,10.4,,43.6,144,359,-10,1029.77,46.5,262.7
"2018-02-27 14:27:58+00",6.7,8.7,,43.8,126,242,27,1029.88,46.8,258.9
"2018-02-27 14:32:58+00",7.3,9.3,,44.2,103,281,-11,1029.82,47.2,277.1
"2018-02-27 14:37:58+00",6.9,8.9,,44.4,95,263,22,1029.85,47.6,283.4
"2018-02-27 14:42:58+00",6.4,8.4,,44.8,108,237,12,1029.77,48.2,291.2
"2018-02-27 14:47:58+00",7.7,9.7,,44.8,99,303,-8,1029.73,48.2,295.1
"2018-02-27 14:52:58+00",9.7,10.7,,45.2,118,382,-20,1029.8,48.5,304.3
"2018-02-27 14:57:58+00",7.1,8.1,,45.5,40,294,10,1029.78,49.1,307.5
"2018-02-27 15:02:58+00",5.9,8.9,,46,170,163,46,1029.66,49.5,313.3
"2018-02-27 15:07:58+00",6.0,7.0,,46.5,110,219,10,1029.76,50,318.8
"2018-02-27 15:12:58+00",7.3,9.3,,46.3,253,174,33,1029.69,49.8,324.6
"2018-02-27 15:17:58+00",4.9,5.9,,46.1,191,71,42,1029.62,49.8,328.7
"2018-02-27 15:22:58+00",7.8,9.8,,45.8,337,-78,34,1029.68,49.9,330.2
"2018-02-27 15:27:58+00",5.5,6.5,,45.7,233,-31,-18,1029.73,49.2,334.9
"2018-02-27 15:32:58+00",3.7,4.7,,45.8,131,-60,14,1029.75,49.7,338
"2018-02-27 15:37:58+00",3.6,4.6,,46,136,-47,-1,1029.74,50,341.1
"2018-02-27 15:42:58+00",7.6,8.6,,45.9,264,-182,4,1029.73,50,346.5
"2018-02-27 15:47:58+00",5.8,7.8,,45.8,200,-133,19,1029.79,49.5,356.2
"2018-02-27 15:52:58+00",7.1,8.1,,45.6,209,-217,0,1029.73,49.4,357.2
"2018-02-27 15:57:58+00",6.7,8.7,,45.7,212,-187,-7,1029.63,49.2,357.6
"2018-02-27 16:02:58+00",7.2,8.2,,45.8,263,-166,-8,1029.68,49.4,366
"2018-02-27 16:07:58+00",7.5,8.5,,45.7,262,-191,1,1029.63,49.7,371.6
"2018-02-27 16:12:58+00",9.0,10.0,,45.6,327,-208,-14,1029.63,49.6,376.1
"2018-02-27 16:17:58+00",8.7,10.7,,45.4,299,-223,-25,1029.56,49.3,379.5
"2018-02-27 16:22:58+00",9.5,11.5,,45.4,350,-225,-15,1029.55,49.2,382.1
"2018-02-27 16:27:58+00",8.3,10.3,,45.5,318,-176,4,1029.51,49.4,385.5
"2018-02-27 16:32:58+00",9.2,11.2,,45.5,281,-288,5,1029.43,49.3,388.1
"2018-02-27 16:37:58+00",10.4,11.4,,45.5,343,-300,-3,1029.19,49.3,318.2
"2018-02-27 16:42:58+00",10.1,12.1,,45.8,377,-226,3,1029.18,49.5,390.3
"2018-02-27 16:47:58+00",9.5,11.5,,45.5,329,-256,-27,1029.17,49.2,392.1
"2018-02-27 16:52:58+00",7.9,8.9,,45.7,138,-309,-24,1029.14,48.6,388.8
"2018-02-27 16:57:58+00",8.8,11.8,,45.5,221,-304,3,1029.19,48.4,386.8
"2018-02-27 17:02:58+00",8.9,9.9,,45.7,175,-346,-6,1029.04,48.6,389.7
"2018-02-27 17:07:58+00",7.5,10.5,,46.2,95,-298,-6,1028.94,48.6,390
"2018-02-27 17:12:58+00",9.2,11.2,,46.1,129,-369,-8,1028.84,48.7,387.9
"2018-02-27 17:17:58+00",8.7,10.7,,45.7,272,-249,-9,1028.8,48.6,391.7
"2018-02-27 17:22:58+00",8.3,10.3,,45.8,136,-334,0,1028.82,48.6,390.6
"2018-02-27 17:27:58+00",8.3,10.3,,45.7,236,-258,1,1028.74,48.6,387.8
"2018-02-27 17:32:58+00",10.1,12.1,,45.6,260,-346,-23,1028.68,48.2,387
"2018-02-27 17:37:58+00",8.0,11.0,,46,106,-327,12,1028.64,48.5,388.2
"2018-02-27 17:42:58+00",9.5,10.5,,45.6,183,-366,-16,1028.53,48.2,385.3
"2018-02-27 17:47:58+00",9.2,10.2,,45.6,170,-355,-21,1028.46,48.2,382.3
"2018-02-27 17:52:58+00",9.0,11.0,,45.8,102,-366,8,1028.27,48.3,379.4
"2018-02-27 17:57:58+00",9.7,10.7,,45.6,267,-319,-25,1028.09,48.2,376.9
"2018-02-27 18:02:58+00",9.8,10.8,,45.7,256,-333,-6,1028.08,48.2,377.8
"2018-02-27 18:07:58+00",10.6,12.6,,45.6,271,-377,-28,1028.02,48.2,376.3
"2018-02-27 18:12:58+00",10.2,11.2,,45.4,169,-400,-4,1027.96,47.9,369.5
"2018-02-27 18:17:58+00",10.0,12.0,,45.5,201,-375,-14,1027.89,47.8,367.3
"2018-02-27 18:22:58+00",10.0,11.0,,45.6,208,-373,-1,1027.83,47.8,359.4
"2018-02-27 18:27:58+00",9.8,11.8,,45.3,126,-396,9,1027.83,47.5,355.7
"2018-02-27 18:32:58+00",10.7,11.7,,45.1,212,-413,-18,1027.73,47.5,353.2
"2018-02-27 18:37:58+00",12.9,14.9,,45,131,-540,-11,1027.66,47.1,347.6
"2018-02-27 18:42:58+00",12.5,15.5,,44.7,133,-516,-4,1027.71,46.8,341.6
"2018-02-27 18:47:58+00",11.3,14.3,,44.6,25,-469,-21,1027.71,46.3,332.3
"2018-02-27 18:52:58+00",12.6,14.6,,44.7,53,-525,-4,1027.58,46.4,331.1
"2018-02-27 18:57:58+00",13.6,14.6,,44.4,54,-585,-29,1027.4,46.1,324.1
"2018-02-27 19:02:58+00",12.3,14.3,,44.6,132,-506,-33,1027.36,46.2,321.1
"2018-02-27 19:07:58+00",12.8,14.8,,44.8,111,-539,-29,1027.38,46.4,312.9
"2018-02-27 19:12:58+00",12.6,14.6,,45,24,-530,-21,1027.36,46.6,311.3
"2018-02-27 19:17:58+00",11.2,14.2,,45.2,9,-472,-2,1027.26,46.5,306.5
"2018-02-27 19:22:58+00",12.7,15.7,,44.9,55,-535,-24,1027.16,46.3,298.4
"2018-02-27 19:27:58+00",11.8,14.8,,45.2,36,-487,-24,1027.06,46.6,290.3
"2018-02-27 19:32:58+00",13.2,14.2,,45.2,17,-554,-39,1026.93,46.4,282.9
"2018-02-27 19:37:58+00",11.2,16.2,,45.7,-19,-474,-6,1026.83,46.8,275
"2018-02-27 19:42:58+00",11.9,14.9,,45.6,-63,-500,-2,1026.81,46.7,268.7
"2018-02-27 19:47:58+00",14.7,18.7,,46,-117,-615,-25,1026.79,47.2,262.2
"2018-02-27 19:52:58+00",11.6,15.6,,46.3,-108,-483,14,1026.69,47.5,259
"2018-02-27 19:57:58+00",15.8,17.8,,46.6,-178,-657,-15,1026.61,47.9,251.1
"2018-02-27 20:02:58+00",15.4,18.4,,46.3,-287,-604,8,1026.69,47.8,245.5
"2018-02-27 20:07:58+00",12.9,16.9,,46.6,-158,-528,10,1026.55,47.8,240.4
"2018-02-27 20:12:58+00",16.6,19.6,,46.4,-265,-665,-12,1026.55,47.7,234.6
"2018-02-27 20:17:58+00",17.3,20.3,,46.4,-344,-665,-11,1026.49,47.7,229.3
"2018-02-27 20:22:58+00",12.3,16.3,,46.7,-163,-498,23,1026.43,47.9,224.7
"2018-02-27 20:27:58+00",14.6,17.6,,46.5,-221,-583,-11,1026.39,47.7,216.6
"2018-02-27 20:32:58+00",15.5,17.5,,46.6,-266,-607,-4,1026.38,47.9,209.4
"2018-02-27 20:37:58+00",15.0,17.0,,46.6,-177,-622,-3,1026.25,47.8,202.7
"2018-02-27 20:42:58+00",15.2,17.2,,46.5,-145,-632,-18,1026.21,47.6,196.4
"2018-02-27 20:47:58+00",14.3,16.3,,46.8,-250,-569,1,1026.12,47.8,187.3
"2018-02-27 20:52:58+00",15.8,17.8,,46.3,-217,-631,-4,1026.19,47.4,178.7
"2018-02-27 20:57:58+00",15.1,19.1,,46.3,-261,-602,2,1026.19,47.3,170.9
"2018-02-27 21:02:58+00",15.6,18.6,,46.1,-329,-601,-2,1026.2,47.2,160.9
"2018-02-27 21:07:58+00",17.5,19.5,,45.8,-366,-666,-13,1026.2,46.8,150.3
"2018-02-27 21:12:58+00",14.8,17.8,,46,-190,-610,-13,1026.09,46.8,141.1
"2018-02-27 21:17:58+00",12.3,16.3,,46.1,-162,-502,16,1025.97,46.8,129.7
"2018-02-27 21:22:58+00",13.7,16.7,,46,-199,-556,3,1025.93,46.8,120.1
"2018-02-27 21:27:58+00",15.0,18.0,,46,-215,-611,-4,1025.82,46.7,109.5
"2018-02-27 21:32:58+00",14.2,16.2,,45.9,-225,-568,-21,1025.77,46.5,98.2
"2018-02-27 21:37:58+00",14.6,17.6,,45.9,-259,-570,-2,1025.7,46.4,87
"2018-02-27 21:42:58+00",14.0,15.0,,46,-248,-551,1,1025.8,46.4,74.7
"2018-02-27 21:47:58+00",14.9,15.9,,45.9,-220,-607,-1,1025.86,46.3,64.5
"2018-02-27 21:52:58+00",15.7,18.7,,45.8,-261,-625,-12,1025.84,46.1,51.5
"2018-02-27 21:57:58+00",14.4,16.4,,45.5,-245,-577,10,1025.9,45.8,43.6
"2018-02-27 22:02:58+00",14.0,17.0,,45.3,-197,-548,5,1025.85,45.5,31.5
"2018-02-27 22:07:58+00",13.7,16.7,,45.2,-199,-549,-1,1025.76,45.3,0.1
"2018-02-27 22:12:58+00",12.4,15.4,,45,-179,-516,-7,1025.88,45.1,9.2
"2018-02-27 22:17:58+00",12.8,14.8,,44.9,-169,-518,-10,1025.92,44.8,3.9
"2018-02-27 22:22:58+00",10.9,12.9,,44.6,-151,-449,3,1025.89,44.7,0
"2018-02-27 22:27:58+00",12.3,15.3,,44.3,-161,-499,-6,1025.79,44.3,0
"2018-02-27 22:32:58+00",12.7,15.7,,44,-168,-524,-1,1025.84,43.9,0
"2018-02-27 22:37:58+00",11.5,13.5,,43.7,-160,-474,5,1025.82,43.5,0
"2018-02-27 22:42:58+00",10.7,13.7,,43.5,-138,-445,1,1025.84,43.2,0
"2018-02-27 22:47:58+00",12.2,14.2,,43.3,-170,-488,-8,1025.82,42.9,0
"2018-02-27 22:52:58+00",12.8,14.8,,43.2,-198,-516,-2,1025.89,42.6,0
"2018-02-27 22:57:58+00",13.0,15.0,,43,-190,-526,-2,1025.93,42.4,0
"2018-02-27 23:02:58+00",14.1,16.1,,42.9,-215,-568,-13,1025.97,42.2,0
"2018-02-27 23:07:58+00",14.0,15.0,,42.8,-190,-565,-16,1025.94,42.1,0
"2018-02-27 23:12:58+00",13.3,16.3,,42.7,-203,-533,-7,1025.92,42,0
"2018-02-27 23:17:58+00",12.4,14.4,,42.7,-216,-488,6,1025.96,41.9,0
"2018-02-27 23:22:58+00",12.0,14.0,,42.8,-237,-473,13,1025.89,42,0
"2018-02-27 23:27:58+00",13.2,15.2,,42.9,-240,-515,-9,1025.83,42,0
"2018-02-27 23:32:58+00",14.7,16.7,,43,-267,-573,-7,1025.84,42.1,0
"2018-02-27 23:37:58+00",14.2,16.2,,43,-286,-545,-1,1025.93,42.1,0
"2018-02-27 23:42:58+00",13.4,16.4,,42.9,-261,-518,-5,1025.94,42.1,0
"2018-02-27 23:47:58+00",13.1,16.1,,42.8,-260,-498,-9,1025.92,41.9,0
"2018-02-27 23:52:58+00",14.0,15.0,,42.8,-295,-534,-8,1025.99,41.9,0
"2018-02-27 23:57:58+00",13.1,14.1,,42.9,-295,-497,1,1025.92,41.9,0
